FW3213 Weather Reports


Display with metric or nautical units.
time (UTC)temp
F
wind
direction
speed
MPH
gust
MPH
rain 1hr
in
rain 24hr
in
rain mn
in
humidity
%
barometer
mb
20260906224728 76 112 4.0 5.0 0.00 0.10 0.01 37 2118.9
20260906223729 77 120 4.0 8.0 0.00 0.10 0.01 35 2118.8
20260906222730 77 128 2.0 6.0 0.00 0.10 0.01 35 2119.1
20260906220829 77 112 4.0 6.0 0.00 0.10 0.01 35 2119.2
20260906215830 78 112 3.0 5.0 0.00 0.10 0.01 37 2119.6
20260906214829 76 124 2.0 4.0 0.00 0.10 0.01 35 2119.8
20260906213828 78 155 3.0 4.0 0.00 0.10 0.01 34 2120.0
20260906212828 79 150 3.0 4.0 0.00 0.10 0.01 31 2119.7
20260906211829 80 122 2.0 4.0 0.00 0.10 0.01 30 2119.6
20260906210829 80 142 3.0 6.0 0.00 0.10 0.01 29 2120.1
20260906210729 80 112 4.0 7.0 0.00 0.10 0.01 30 2119.8
20260906205729 80 136 4.0 6.0 0.00 0.10 0.01 30 2120.1
20260906204828 79 126 5.0 8.0 0.00 0.10 0.01 30 2120.1
20260906203829 77 230 0.0 2.0 0.00 0.10 0.01 31 2120.3
20260906202831 78 112 4.0 6.0 0.00 0.10 0.01 29 2120.4
20260906200928 78 169 4.0 6.0 0.00 0.10 0.01 29 2120.9
20260906200830 78 124 3.0 5.0 0.00 0.10 0.01 29 2120.8
20260906195828 78 135 2.0 4.0 0.00 0.10 0.01 28 2120.8
20260906195729 78 135 2.0 4.0 0.00 0.10 0.01 28 2120.8
20260906194731 78 123 3.0 5.0 0.00 0.10 0.01 28 2120.6
20260906193828 78 119 6.0 7.0 0.00 0.10 0.01 29 2120.8
20260906192828 78 128 3.0 4.0 0.00 0.10 0.01 29 2121.2
20260906192729 79 112 5.0 9.0 0.00 0.10 0.01 29 2121.2
20260906191730 78 127 3.0 4.0 0.00 0.10 0.01 30 2121.2
20260906191628 77 184 2.0 4.0 0.00 0.10 0.01 30 2121.4
20260906190628 78 117 4.0 8.0 0.00 0.10 0.01 30 2121.4
20260906184728 78 177 1.0 3.0 0.00 0.10 0.01 30 2122.2
20260906183731 78 116 4.0 6.0 0.00 0.10 0.01 31 2121.9
20260906180729 76 110 4.0 7.0 0.00 0.10 0.01 32 2123.0
20260906174729 75 118 3.0 4.0 0.00 0.10 0.01 34 2123.6
20260906173728 73 352 1.0 6.0 0.00 0.10 0.01 35 2124.2
20260906173629 73 103 1.0 3.0 0.00 0.10 0.01 36 2124.3
20260906172628 73 112 0.0 1.0 0.00 0.10 0.01 38 2124.6
20260906170630 72 112 5.0 9.0 0.00 0.10 0.01 38 2125.0
20260906165628 72 112 4.0 6.0 0.00 0.10 0.01 40 2125.2
20260906165531 72 120 2.0 4.0 0.00 0.10 0.01 40 2125.0
20260906164629 71 107 2.0 4.0 0.00 0.10 0.01 40 2125.1
20260906163629 71 112 4.0 5.0 0.00 0.10 0.01 41 2125.4
20260906161629 70 125 2.0 4.0 0.00 0.10 0.01 47 2125.4
20260906161528 69 113 0.0 1.0 0.00 0.10 0.01 47 2125.4
20260906160529 68 112 0.0 0.0 0.00 0.10 0.01 46 2125.5
20260906154627 65 112 2.0 3.0 0.00 0.10 0.01 51 2125.4
20260906153528 63 225 0.0 2.0 0.00 0.10 0.01 57 2125.7
20260906152529 63 315 0.0 0.0 0.00 0.10 0.01 59 2125.7
20260906151628 62 315 0.0 0.0 0.00 0.10 0.01 63 2125.7
20260906150645 59 315 0.0 0.0 0.00 0.10 0.01 67 2125.7
20260906150528 59 315 0.0 0.0 0.00 0.10 0.01 68 2125.7
20260906145627 57 315 0.0 0.0 0.00 0.10 0.01 70 2126.0
20260906144629 57 315 0.0 0.0 0.00 0.10 0.01 70 2125.9
20260906143629 55 315 0.0 0.0 0.00 0.10 0.01 74 2126.2
20260906142630 53 315 0.0 0.0 0.00 0.10 0.01 80 2125.9
20260906142532 53 315 0.0 0.0 0.00 0.10 0.01 81 2125.9
20260906141529 51 315 0.0 0.0 0.00 0.10 0.01 81 2125.8
20260906140529 51 315 0.0 0.0 0.00 0.10 0.01 81 2125.9
20260906134530 49 315 0.0 0.0 0.00 0.10 0.01 83 2125.8
20260906133629 49 315 0.0 0.0 0.00 0.10 0.01 84 2125.5
20260906131730 48 315 1.0 1.0 0.00 0.10 0.01 85 2125.7
20260906131627 48 315 1.0 1.0 0.00 0.10 0.01 86 2125.8
20260906130628 47 315 2.0 3.0 0.00 0.10 0.01 87 2125.4
20260906125627 46 337 2.0 3.0 0.00 0.10 0.01 89 2125.4
20260906124628 46 337 1.0 2.0 0.00 0.10 0.01 88 2125.2
20260906123629 46 337 0.0 1.0 0.00 0.10 0.01 88 2125.2
20260906123530 46 337 0.0 2.0 0.00 0.10 0.01 88 2125.1
20260906122527 47 337 1.0 2.0 0.00 0.10 0.01 87 2125.0
20260906122428 47 337 1.0 1.0 0.00 0.10 0.01 87 2125.0
20260906120428 48 337 0.0 0.0 0.00 0.10 0.01 87 2125.4
20260906115430 47 337 2.0 3.0 0.00 0.10 0.01 89 2125.4
20260906114428 47 337 0.0 0.0 0.00 0.10 0.01 89 2125.5
20260906114328 47 337 0.0 1.0 0.00 0.10 0.01 89 2125.4
20260906113330 47 337 1.0 2.0 0.00 0.10 0.01 89 2125.5
20260906112329 48 337 0.0 0.0 0.00 0.10 0.01 88 2125.0
20260906110327 48 337 1.0 1.0 0.00 0.10 0.01 88 2125.0
20260906105327 49 337 2.0 2.0 0.00 0.10 0.01 87 2124.9
20260906104427 48 337 1.0 2.0 0.00 0.10 0.01 88 2124.7
20260906103428 48 337 2.0 2.0 0.00 0.10 0.01 88 2124.9
20260906102443 47 337 1.0 2.0 0.01 0.10 0.01 89 2125.0
20260906101527 47 337 1.0 2.0 0.01 0.10 0.01 90 2125.0
20260906095528 46 337 1.0 2.0 0.01 0.10 0.01 92 2124.9
20260906094527 45 337 0.0 0.0 0.01 0.10 0.01 92 2125.2
20260906093528 45 337 2.0 3.0 0.01 0.10 0.01 92 2125.4
20260906092529 46 337 1.0 1.0 0.01 0.10 0.00 91 2125.4
20260906091628 47 337 1.0 1.0 0.00 0.09 0.00 90 2125.5
20260906090628 48 337 0.0 1.0 0.00 0.09 0.00 90 2125.4
20260906090526 48 337 0.0 1.0 0.00 0.09 0.00 90 2125.4
20260906085528 48 337 2.0 2.0 0.00 0.09 0.00 91 2125.5
20260906085427 48 337 2.0 3.0 0.00 0.09 0.00 90 2125.5
20260906084428 47 337 3.0 4.0 0.00 0.09 0.00 91 2125.5
20260906083527 48 337 0.0 0.0 0.00 0.09 0.00 90 2125.3
20260906082528 48 337 0.0 0.0 0.00 0.09 0.00 91 2125.4
20260906081626 48 337 1.0 2.0 0.00 0.09 0.00 92 2125.8
20260906080629 48 337 2.0 3.0 0.00 0.09 0.00 92 2126.0
20260906075628 49 337 1.0 1.0 0.00 0.09 0.00 91 2126.2
20260906074627 48 337 2.0 2.0 0.00 0.09 0.00 91 2126.4
20260906074528 48 337 2.0 3.0 0.00 0.09 0.00 91 2126.1
20260906073527 49 337 2.0 2.0 0.00 0.09 0.00 92 2126.2
20260906072528 48 337 2.0 2.0 0.00 0.09 0.00 91 2126.4
20260906071527 48 337 1.0 2.0 0.00 0.09 0.00 91 2126.2
20260906070527 48 337 1.0 2.0 0.00 0.09 0.00 91 2126.4
20260906070428 48 337 0.0 1.0 0.00 0.09 0.00 92 2126.4
20260906065428 49 337 1.0 1.0 0.00 0.09 0.00 91 2126.4
20260906063429 48 337 3.0 3.0 0.00 0.09 0.00 91 2126.2
20260906062527 49 337 2.0 3.0 0.00 0.09 0.00 91 2126.6
20260906060626 49 337 2.0 2.0 0.00 0.09 0.00 91 2127.2
20260906055717 50 337 2.0 2.0 0.00 0.09 0.09 90 2126.7
20260906054716 50 337 2.0 3.0 0.00 0.09 0.09 91 2126.9
20260906054617 51 337 2.0 3.0 0.00 0.09 0.09 90 2126.9
20260906053717 51 337 1.0 2.0 0.00 0.09 0.09 90 2127.1
20260906052717 51 337 1.0 2.0 0.00 0.09 0.09 89 2127.2
20260906051718 52 337 0.0 0.0 0.00 0.09 0.09 89 2127.5
20260906050816 52 337 2.0 3.0 0.00 0.09 0.09 90 2127.7
20260906045815 52 337 2.0 2.0 0.01 0.09 0.09 89 2127.7
20260906044817 52 292 2.0 4.0 0.04 0.09 0.09 89 2127.5
20260906043832 52 292 0.0 2.0 0.08 0.09 0.09 87 2127.7
20260906042917 52 292 0.0 1.0 0.09 0.09 0.09 86 2127.5
20260906041917 53 292 0.0 0.0 0.09 0.09 0.09 86 2127.3
20260906041015 53 307 2.0 3.0 0.09 0.09 0.09 86 2127.8
20260906040017 53 292 3.0 3.0 0.08 0.08 0.08 84 2128.2
20260906035016 54 292 5.0 8.0 0.06 0.06 0.06 75 2128.9
20260906034115 59 306 7.0 10.0 0.02 0.02 0.02 57 2127.9
20260906033116 63 292 3.0 4.0 0.00 0.00 0.00 44 2126.6
20260906030216 63 337 0.0 0.0 0.00 0.00 0.00 42 2124.9
20260906025217 62 337 1.0 2.0 0.00 0.00 0.00 43 2124.6
20260906024116 62 112 0.0 0.0 0.00 0.00 0.00 43 2124.9
20260906023116 63 112 0.0 0.0 0.00 0.00 0.00 42 2124.6
20260906023015 63 112 0.0 0.0 0.00 0.00 0.00 42 2124.6
20260906022016 63 112 0.0 0.0 0.00 0.00 0.00 40 2124.4
20260906021916 63 112 0.0 0.0 0.00 0.00 0.00 40 2124.6
20260906020916 63 112 0.0 0.0 0.00 0.00 0.00 40 2124.6
20260906015917 64 112 0.0 0.0 0.00 0.00 0.00 38 2123.8
20260906013016 67 112 0.0 0.0 0.00 0.00 0.00 35 2123.8
20260906012016 68 112 0.0 0.0 0.00 0.00 0.00 33 2123.7
20260906011017 69 112 0.0 0.0 0.00 0.00 0.00 32 2123.7
20260906010017 70 112 0.0 0.0 0.00 0.00 0.00 31 2123.6
20260906005019 71 112 1.0 1.0 0.00 0.00 0.00 32 2123.3
20260906003116 71 155 1.0 2.0 0.00 0.00 0.00 31 2123.3
20260906002115 71 137 2.0 3.0 0.00 0.00 0.00 31 2123.4
20260906001117 72 112 2.0 4.0 0.00 0.00 0.00 30 2123.3
20260906000117 73 112 2.0 4.0 0.00 0.00 0.00 30 2122.8
20260905233114 73 112 2.0 3.0 0.00 0.00 0.00 28 2123.0
20260905232118 74 112 2.0 4.0 0.00 0.00 0.00 28 2122.8